Volver al catálogo

BREEZE-M R/B

ActivoHEO
NORAD 40506·ROCKET BODY·🇷🇺 Russia

Lanzado Mar 18, 2015 desde Baikonur Cosmodrome

Loading…

Próximos Pases (próximas 24 horas)

TLE

ActualizadoSource: Space-Track

Época: Sep 13, 2026, 21:24 UTC

1 40506U 15012B   26256.89180481 -.00000149  00000-0  00000-0 0  9999
2 40506  19.7308 167.5149 5807057 200.9894 119.3482  2.11099921 88628

Sigue BREEZE-M R/B en tiempo real con AllMySat

Download on the App Store